FW3157 Weather Reports


Display with metric or nautical units.
time (UTC)temp
F
wind
direction
speed
MPH
gust
MPH
rain 1hr
in
rain 24hr
in
rain mn
in
humidity
%
barometer
mb
20260903130944 89 266 6.0 12.0 0.00 0.23 0.23 49 1012.8
20260903130443 89 259 7.0 12.0 0.00 0.23 0.23 50 1012.8
20260903125943 89 233 7.0 12.0 0.00 0.23 0.23 50 1012.9
20260903125444 89 258 6.0 12.0 0.00 0.23 0.23 49 1012.8
20260903125200 89 245 5.0 11.0 0.00 0.23 0.23 49 1012.9
20260903124443 89 276 6.0 10.0 0.00 0.23 0.23 50 1013.0
20260903123943 89 264 6.0 10.0 0.00 0.23 0.23 49 1013.0
20260903123444 89 280 6.0 11.0 0.00 0.23 0.23 49 1013.0
20260903123205 88 275 7.0 11.0 0.00 0.23 0.23 50 1013.1
20260903122444 88 297 7.0 10.0 0.00 0.23 0.23 49 1013.0
20260903121943 88 281 6.0 10.0 0.00 0.23 0.23 50 1013.1
20260903121444 88 271 7.0 11.0 0.00 0.23 0.23 49 1013.1
20260903120944 88 292 7.0 11.0 0.00 0.23 0.23 49 1013.3
20260903120443 88 237 7.0 10.0 0.00 0.23 0.23 49 1013.3
20260903115936 88 259 6.0 10.0 0.00 0.23 0.23 51 1013.3
20260903115431 88 269 7.0 12.0 0.00 0.23 0.23 51 1013.4
20260903114925 88 264 7.0 12.0 0.00 0.23 0.23 51 1013.5
20260903114641 88 281 6.0 12.0 0.00 0.23 0.23 50 1013.6
20260903113912 87 243 7.0 11.0 0.00 0.23 0.23 52 1013.6
20260903113406 87 255 7.0 11.0 0.00 0.23 0.23 50 1013.6
20260903112908 88 264 5.0 10.0 0.00 0.23 0.23 51 1013.7
20260903112407 88 276 5.0 12.0 0.00 0.23 0.23 52 1013.7
20260903111909 88 292 6.0 12.0 0.00 0.23 0.23 51 1013.7
20260903111407 87 261 5.0 9.0 0.00 0.23 0.23 52 1013.8
20260903110907 87 307 5.0 10.0 0.00 0.23 0.23 53 1013.9
20260903110403 87 255 5.0 10.0 0.00 0.23 0.23 53 1013.8
20260903105903 87 274 5.0 12.0 0.00 0.23 0.23 54 1013.9
20260903105403 86 279 7.0 12.0 0.00 0.23 0.23 55 1014.0
20260903105127 86 266 8.0 12.0 0.00 0.23 0.23 55 1014.1
20260903104404 86 264 7.0 12.0 0.00 0.23 0.23 55 1014.1
20260903103903 86 262 6.0 11.0 0.00 0.23 0.23 55 1014.2
20260903103404 86 259 6.0 11.0 0.00 0.23 0.23 55 1014.3
20260903102903 86 299 6.0 11.0 0.00 0.23 0.23 56 1014.3
20260903102404 86 268 6.0 11.0 0.00 0.23 0.23 55 1014.3
20260903101902 86 338 6.0 11.0 0.00 0.23 0.23 51 1014.4
20260903101356 86 297 7.0 11.0 0.00 0.23 0.23 49 1014.5
20260903100849 86 291 7.0 11.0 0.00 0.23 0.23 49 1014.6
20260903100342 85 271 7.0 11.0 0.00 0.23 0.23 51 1014.6
20260903095837 86 311 6.0 11.0 0.00 0.23 0.23 52 1014.7
20260903095330 85 305 6.0 11.0 0.00 0.23 0.23 54 1014.8
20260903094825 85 323 7.0 11.0 0.00 0.23 0.23 56 1014.8
20260903094319 85 289 7.0 12.0 0.00 0.23 0.23 56 1014.8
20260903093812 84 301 7.0 12.0 0.00 0.23 0.23 56 1015.0
20260903093533 84 283 8.0 11.0 0.00 0.23 0.23 56 1015.0
20260903093018 84 316 8.0 12.0 0.00 0.23 0.23 58 1015.1
20260903092255 84 298 7.0 12.0 0.00 0.23 0.23 58 1015.1
20260903091749 84 302 6.0 11.0 0.00 0.23 0.23 57 1015.1
20260903091242 84 304 6.0 11.0 0.00 0.23 0.23 57 1015.2
20260903090736 84 314 6.0 10.0 0.00 0.23 0.23 57 1015.2
20260903090231 84 316 6.0 9.0 0.00 0.23 0.23 55 1015.2
20260903085724 84 291 6.0 12.0 0.00 0.23 0.23 56 1015.2
20260903085219 84 278 8.0 12.0 0.00 0.23 0.23 55 1015.2
20260903084713 83 302 8.0 11.0 0.00 0.23 0.23 55 1015.2
20260903084207 84 309 8.0 11.0 0.00 0.23 0.23 54 1015.2
20260903083701 84 274 7.0 12.0 0.00 0.23 0.23 54 1015.2
20260903083154 84 303 6.0 12.0 0.00 0.23 0.23 52 1015.2
20260903082917 84 304 4.0 9.0 0.00 0.23 0.23 51 1015.2
20260903082403 84 279 3.0 7.0 0.00 0.23 0.23 53 1015.2
20260903081637 84 359 4.0 8.0 0.00 0.23 0.23 52 1015.3
20260903081131 83 303 5.0 8.0 0.00 0.23 0.23 56 1015.3
20260903080625 83 11 5.0 8.0 0.00 0.23 0.23 56 1015.3
20260903080114 83 295 5.0 9.0 0.00 0.23 0.23 57 1015.3
20260903075609 83 264 4.0 9.0 0.00 0.23 0.23 57 1015.3
20260903075102 82 276 4.0 9.0 0.00 0.23 0.23 59 1015.3
20260903074557 82 311 3.0 9.0 0.00 0.23 0.23 62 1015.4
20260903074050 81 280 4.0 8.0 0.00 0.23 0.23 62 1015.4
20260903073545 81 313 3.0 8.0 0.00 0.23 0.23 62 1015.5
20260903073040 81 314 3.0 7.0 0.00 0.23 0.23 63 1015.4
20260903072532 80 315 3.0 7.0 0.00 0.23 0.23 64 1015.5
20260903072027 80 305 3.0 6.0 0.00 0.23 0.23 66 1015.5
20260903071521 80 285 3.0 7.0 0.00 0.23 0.23 66 1015.5
20260903071014 79 294 3.0 7.0 0.00 0.23 0.23 66 1015.5
20260903070508 79 300 3.0 7.0 0.00 0.23 0.23 68 1015.5
20260903070004 79 285 4.0 7.0 0.00 0.23 0.23 69 1015.5
20260903065457 80 276 3.0 6.0 0.00 0.23 0.23 69 1015.5
20260903064951 80 222 2.0 5.0 0.00 0.23 0.23 69 1015.4
20260903064710 80 252 1.0 4.0 0.00 0.23 0.23 66 1015.4
20260903063939 82 265 1.0 3.0 0.00 0.23 0.23 63 1015.3
20260903063432 81 117 0.0 2.0 0.00 0.23 0.23 63 1015.3
20260903062927 80 111 1.0 4.0 0.00 0.23 0.23 65 1015.4
20260903062421 81 113 1.0 4.0 0.00 0.23 0.23 63 1015.4
20260903061915 81 86 0.0 2.0 0.00 0.23 0.23 64 1015.4
20260903061409 81 86 0.0 2.0 0.00 0.23 0.23 63 1015.5
20260903060902 80 86 0.0 2.0 0.00 0.23 0.23 66 1015.5
20260903060357 80 86 1.0 2.0 0.00 0.23 0.23 66 1015.5
20260903055851 80 86 1.0 2.0 0.00 0.23 0.23 68 1015.5
20260903055345 79 86 1.0 3.0 0.00 0.23 0.23 68 1015.5
20260903054839 78 86 1.0 3.0 0.00 0.23 0.23 70 1015.5
20260903054557 77 302 1.0 4.0 0.00 0.23 0.23 72 1015.6
20260903053827 77 302 1.0 4.0 0.00 0.23 0.23 72 1015.6
20260903053321 77 275 1.0 4.0 0.00 0.23 0.23 73 1015.6
20260903052819 77 287 1.0 3.0 0.00 0.23 0.23 73 1015.7
20260903052319 77 283 1.0 4.0 0.00 0.23 0.23 72 1015.7
20260903051819 77 290 1.0 4.0 0.00 0.23 0.23 72 1015.7
20260903051317 77 268 0.0 1.0 0.00 0.23 0.23 72 1015.7
20260903050814 77 1 0.0 1.0 0.00 0.23 0.23 72 1015.7
20260903050313 76 1 0.0 2.0 0.00 0.23 0.23 74 1015.8
20260903045813 75 1 0.0 2.0 0.00 0.23 0.23 76 1015.7
20260903045531 75 270 0.0 2.0 0.00 0.23 0.23 76 1015.7
20260903044811 75 269 1.0 3.0 0.00 0.23 0.23 76 1015.6
20260903044311 75 270 1.0 3.0 0.00 0.23 0.23 76 1015.6
20260903043809 75 117 0.0 1.0 0.00 0.23 0.23 76 1015.5
20260903043309 74 117 0.0 1.0 0.00 0.23 0.23 76 1015.5
20260903042808 74 117 1.0 7.0 0.00 0.23 0.23 76 1015.4
20260903042308 74 117 1.0 7.0 0.00 0.23 0.23 77 1015.4
20260903041805 74 104 1.0 3.0 0.00 0.23 0.23 77 1015.4
20260903041337 74 88 1.0 3.0 0.00 0.23 0.23 79 1015.4
20260903040805 74 103 1.0 2.0 0.00 0.23 0.23 78 1015.3
20260903040304 74 103 0.0 2.0 0.00 0.23 0.23 78 1015.3
20260903035805 74 103 0.0 2.0 0.00 0.23 0.23 79 1015.3
20260903035306 74 103 1.0 3.0 0.00 0.23 0.23 78 1015.3
20260903035117 74 103 2.0 3.0 0.00 0.23 0.23 78 1015.3
20260903035013 74 84 2.0 6.0 0.00 0.23 0.23 79 1015.4
20260903033800 74 73 2.0 6.0 0.00 0.23 0.23 79 1015.4
20260903033301 74 98 3.0 4.0 0.00 0.23 0.23 80 1015.4
20260903032801 74 77 3.0 5.0 0.00 0.23 0.23 80 1015.4
20260903032523 74 89 3.0 6.0 0.00 0.23 0.23 79 1015.5
20260903031801 75 60 2.0 6.0 0.00 0.23 0.23 79 1015.5
20260903031302 75 89 2.0 6.0 0.00 0.23 0.23 79 1015.5
20260903030803 75 72 1.0 2.0 0.00 0.23 0.23 78 1015.4
20260903030302 75 278 0.0 2.0 0.00 0.23 0.23 77 1015.4
20260903025803 75 310 0.0 3.0 0.00 0.23 0.23 78 1015.4
20260903025255 75 341 1.0 4.0 0.00 0.23 0.23 80 1015.4
20260903025012 75 347 1.0 4.0 0.00 0.23 0.23 80 1015.4
20260903024243 75 53 1.0 4.0 0.00 0.23 0.23 80 1015.4
20260903023737 75 281 2.0 6.0 0.00 0.23 0.23 79 1015.5
20260903023720 75 278 4.0 9.0 0.00 0.23 0.23 79 1015.5
20260903022725 74 282 5.0 9.0 0.00 0.23 0.23 81 1015.4
20260903022219 74 274 6.0 10.0 0.00 0.23 0.23 83 1015.4
20260903021935 74 298 7.0 16.0 0.00 0.23 0.23 83 1015.5
20260903021207 74 262 8.0 19.0 0.00 0.23 0.23 85 1015.4
20260903020701 74 276 8.0 19.0 0.03 0.23 0.23 85 1015.4
20260903020155 74 291 7.0 16.0 0.05 0.23 0.23 83 1015.3
20260903015649 75 312 4.0 16.0 0.05 0.23 0.23 80 1015.3
20260903015143 74 283 2.0 6.0 0.06 0.23 0.23 81 1015.1
20260903014637 74 13 2.0 5.0 0.09 0.23 0.23 80 1014.9
20260903014620 74 8 1.0 4.0 0.09 0.23 0.23 79 1014.6
20260903013625 74 134 2.0 6.0 0.09 0.23 0.23 80 1014.6
20260903013120 74 157 2.0 6.0 0.09 0.23 0.23 79 1014.6
20260903012612 75 107 2.0 7.0 0.09 0.24 0.23 78 1014.6
20260903012105 75 126 4.0 8.0 0.09 0.24 0.23 77 1014.6
20260903011823 76 155 6.0 14.0 0.09 0.24 0.23 73 1014.8
20260903011053 77 98 7.0 14.0 0.08 0.24 0.23 69 1014.9
20260903010547 77 119 6.0 14.0 0.05 0.20 0.20 66 1015.4
20260903010042 77 98 4.0 14.0 0.04 0.20 0.18 67 1015.7
20260903005535 77 108 2.0 5.0 0.04 0.20 0.18 69 1015.9
20260903005030 77 269 2.0 5.0 0.03 0.19 0.17 67 1016.1
20260903004523 77 112 4.0 13.0 0.00 0.16 0.14 67 1015.9
20260903004017 77 84 7.0 13.0 0.00 0.16 0.14 66 1015.7
20260903003954 77 99 8.0 17.0 0.01 0.16 0.14 66 1015.8
20260903003231 77 86 10.0 18.0 0.01 0.16 0.14 67 1015.6
20260903002459 77 66 9.0 18.0 0.01 0.16 0.14 69 1015.5
20260903001954 76 84 10.0 18.0 0.01 0.16 0.14 70 1015.6
20260903001447 76 89 11.0 21.0 0.01 0.16 0.14 71 1015.6
20260903001203 76 91 11.0 21.0 0.01 0.16 0.14 71 1015.7
20260903000435 76 77 11.0 22.0 0.01 0.16 0.14 72 1015.6
20260902235929 76 96 11.0 25.0 0.01 0.16 0.14 73 1015.7
20260902235423 75 44 9.0 25.0 0.01 0.16 0.14 74 1015.8
20260902234917 75 94 10.0 21.0 0.01 0.16 0.14 74 1015.9
20260902234630 75 79 12.0 21.0 0.01 0.16 0.14 74 1015.7
20260902234123 76 39 11.0 21.0 0.01 0.16 0.14 74 1015.7
20260902233359 75 63 9.0 20.0 0.00 0.15 0.13 75 1015.8
20260902232853 75 56 8.0 19.0 0.00 0.15 0.13 76 1015.8
20260902232347 75 87 7.0 16.0 0.00 0.15 0.13 76 1015.8
20260902232323 75 72 6.0 14.0 0.00 0.15 0.13 77 1015.8
20260902231335 75 73 7.0 14.0 0.02 0.15 0.13 76 1015.9
20260902231049 76 356 8.0 15.0 0.02 0.15 0.13 75 1015.9
20260902230323 75 34 9.0 17.0 0.02 0.15 0.13 75 1016.0
20260902225817 75 13 8.0 17.0 0.05 0.15 0.13 75 1016.1
20260902225537 74 23 7.0 14.0 0.05 0.15 0.13 78 1016.2
20260902224805 74 13 8.0 16.0 0.07 0.15 0.13 78 1016.3
20260902224300 74 43 9.0 17.0 0.11 0.15 0.13 78 1016.3
20260902223753 74 21 9.0 22.0 0.13 0.15 0.13 79 1016.3
20260902223247 74 25 11.0 22.0 0.13 0.15 0.13 79 1016.5
20260902222742 74 21 11.0 19.0 0.13 0.15 0.13 79 1016.6
20260902222235 74 55 10.0 19.0 0.13 0.15 0.13 80 1016.7
20260902221732 74 356 10.0 23.0 0.13 0.15 0.13 81 1016.9
20260902221231 75 41 9.0 23.0 0.12 0.13 0.12 80 1016.9
20260902221213 75 307 9.0 19.0 0.11 0.13 0.11 81 1016.6
20260902220230 75 25 9.0 18.0 0.11 0.13 0.11 82 1016.5
20260902215730 75 29 7.0 18.0 0.09 0.10 0.09 80 1016.9
20260902215230 75 352 7.0 20.0 0.08 0.09 0.09 81 1016.5
20260902214730 76 35 8.0 20.0 0.06 0.07 0.06 76 1016.2
20260902214230 77 18 6.0 12.0 0.02 0.04 0.02 73 1016.0
20260902213730 76 314 5.0 10.0 0.00 0.02 0.00 72 1016.2
20260902213230 76 347 5.0 10.0 0.00 0.02 0.00 72 1016.0
20260902212731 76 114 4.0 10.0 0.00 0.02 0.00 72 1015.4
20260902212228 76 64 3.0 9.0 0.00 0.02 0.00 73 1015.3
20260902211728 76 37 4.0 10.0 0.00 0.02 0.00 73 1015.3
20260902211227 76 79 5.0 12.0 0.00 0.02 0.00 74 1015.2
20260902210728 75 58 6.0 12.0 0.00 0.02 0.00 75 1015.1
20260902210227 75 93 6.0 14.0 0.00 0.02 0.00 75 1015.4
20260902205728 75 77 8.0 15.0 0.00 0.02 0.02 74 1015.2
20260902205222 75 23 8.0 19.0 0.00 0.02 0.02 74 1015.5
20260902204715 76 29 7.0 17.0 0.00 0.02 0.02 72 1015.5
20260902204435 76 60 6.0 16.0 0.00 0.02 0.02 71 1015.3
20260902203704 77 79 5.0 14.0 0.00 0.02 0.02 69 1015.1
20260902203422 77 59 6.0 18.0 0.00 0.02 0.02 68 1015.0
20260902202652 76 32 11.0 20.0 0.00 0.02 0.02 72 1015.0
20260902202145 77 49 9.0 20.0 0.00 0.02 0.02 70 1015.0
20260902201639 79 327 6.0 15.0 0.00 0.02 0.02 68 1015.0
20260902201133 80 315 5.0 15.0 0.00 0.02 0.02 74 1015.3
20260902200628 81 314 3.0 9.0 0.00 0.02 0.02 75 1015.3
20260902200342 81 311 2.0 5.0 0.00 0.02 0.02 74 1015.1
20260902195616 81 300 1.0 3.0 0.00 0.02 0.02 72 1015.0
20260902195109 82 86 1.0 4.0 0.00 0.02 0.02 71 1014.9
20260902194603 82 78 2.0 5.0 0.00 0.02 0.02 70 1014.9
20260902194057 82 41 2.0 5.0 0.00 0.02 0.02 70 1014.9
20260902193551 82 115 1.0 4.0 0.00 0.02 0.02 66 1014.9
20260902193046 83 148 2.0 5.0 0.00 0.02 0.02 66 1015.0
20260902192540 83 151 2.0 5.0 0.00 0.02 0.02 66 1014.9
20260902192033 83 84 2.0 4.0 0.00 0.02 0.02 66 1014.8
20260902191528 83 143 2.0 5.0 0.00 0.02 0.02 66 1014.8
20260902191021 83 212 2.0 5.0 0.00 0.02 0.02 66 1014.7
20260902190515 83 198 2.0 7.0 0.00 0.02 0.02 66 1014.7
20260902190011 83 216 2.0 7.0 0.00 0.02 0.02 65 1014.9
20260902185504 83 227 1.0 3.0 0.00 0.02 0.02 65 1015.0
20260902185001 83 215 1.0 3.0 0.00 0.02 0.02 63 1015.0
20260902184502 83 181 1.0 3.0 0.00 0.02 0.02 62 1014.9
20260902184002 83 208 1.0 2.0 0.00 0.02 0.02 63 1014.9
20260902183502 83 140 0.0 2.0 0.00 0.02 0.02 63 1014.9
20260902183002 83 225 0.0 2.0 0.00 0.02 0.02 64 1014.8
20260902182502 83 148 1.0 4.0 0.00 0.02 0.02 64 1014.9
20260902182001 83 193 1.0 4.0 0.00 0.02 0.02 63 1014.8
20260902181501 83 91 1.0 3.0 0.00 0.02 0.02 64 1014.8
20260902181002 83 155 2.0 5.0 0.00 0.02 0.02 64 1014.7
20260902180503 84 244 2.0 5.0 0.00 0.02 0.02 64 1014.6
20260902180234 84 106 2.0 8.0 0.00 0.02 0.02 63 1014.6
20260902175500 84 133 2.0 8.0 0.00 0.02 0.02 63 1014.6
20260902175001 84 203 3.0 7.0 0.00 0.02 0.02 63 1014.5
20260902174459 84 109 2.0 6.0 0.00 0.02 0.02 64 1014.3
20260902173959 84 193 3.0 9.0 0.00 0.02 0.02 64 1014.4
20260902173453 84 191 5.0 10.0 0.00 0.02 0.02 63 1014.4
20260902173212 84 116 4.0 10.0 0.00 0.02 0.02 63 1014.3
20260902172441 84 179 3.0 8.0 0.00 0.02 0.02 64 1014.3
20260902172154 84 87 3.0 8.0 0.00 0.02 0.02 64 1014.3
20260902171430 84 89 3.0 8.0 0.00 0.02 0.02 64 1014.2
20260902170923 84 225 4.0 8.0 0.00 0.02 0.02 65 1014.2
20260902170417 85 204 3.0 8.0 0.00 0.02 0.02 64 1014.3
20260902165914 85 146 3.0 8.0 0.00 0.02 0.02 64 1014.3
20260902165414 85 122 3.0 6.0 0.00 0.02 0.02 64 1014.3
20260902164913 85 236 3.0 7.0 0.00 0.02 0.02 62 1014.2
20260902164414 85 235 3.0 7.0 0.00 0.02 0.02 61 1014.3
20260902163913 85 245 3.0 8.0 0.00 0.02 0.02 59 1014.2
20260902163633 85 226 3.0 12.0 0.00 0.02 0.02 58 1014.3
20260902163139 86 137 3.0 12.0 0.00 0.02 0.02 58 1014.2
20260902162414 86 156 3.0 8.0 0.00 0.02 0.02 59 1014.1
20260902161913 86 104 3.0 8.0 0.00 0.02 0.02 59 1014.1
20260902161414 86 143 2.0 7.0 0.00 0.02 0.02 61 1014.2
20260902161137 86 225 2.0 7.0 0.00 0.02 0.02 60 1014.2
20260902160414 86 169 3.0 7.0 0.00 0.02 0.02 58 1014.2
20260902155913 87 236 3.0 9.0 0.00 0.02 0.02 60 1014.3
20260902155723 87 124 4.0 9.0 0.00 0.02 0.02 59 1014.3
20260902155618 87 217 4.0 10.0 0.00 0.02 0.02 59 1014.4
20260902154414 87 217 5.0 10.0 0.00 0.02 0.02 59 1014.4
20260902153914 87 161 5.0 10.0 0.00 0.02 0.02 57 1014.4
20260902153414 88 233 5.0 11.0 0.00 0.02 0.02 55 1014.3
20260902152914 88 195 5.0 11.0 0.00 0.02 0.02 53 1014.1
20260902152414 89 210 4.0 11.0 0.00 0.02 0.02 52 1014.1
20260902151911 89 219 4.0 10.0 0.00 0.02 0.02 51 1013.9
20260902151631 89 104 4.0 11.0 0.00 0.02 0.02 50 1013.8
20260902151136 90 188 5.0 11.0 0.00 0.02 0.02 49 1013.8
20260902150411 90 236 6.0 12.0 0.00 0.02 0.02 48 1013.9
20260902145911 90 236 5.0 12.0 0.00 0.02 0.02 49 1013.9
20260902145411 91 222 5.0 10.0 0.00 0.02 0.02 48 1013.9
20260902144910 91 246 5.0 11.0 0.00 0.02 0.02 48 1014.0
20260902144409 91 203 5.0 12.0 0.00 0.02 0.02 49 1014.1
20260902143908 91 240 5.0 13.0 0.00 0.02 0.02 49 1014.1
20260902143901 91 227 5.0 13.0 0.00 0.02 0.02 50 1014.0
20260902142907 91 203 4.0 12.0 0.00 0.02 0.02 50 1014.0
20260902142407 91 129 4.0 12.0 0.00 0.02 0.02 50 1014.1
20260902141905 91 202 4.0 9.0 0.00 0.02 0.02 49 1014.0
20260902141404 91 205 3.0 12.0 0.00 0.02 0.02 47 1014.1
20260902140903 91 304 3.0 12.0 0.00 0.02 0.02 47 1014.2
20260902140403 92 234 4.0 11.0 0.00 0.02 0.02 44 1014.2
20260902140128 92 224 5.0 11.0 0.00 0.02 0.02 43 1014.3
20260902135402 92 212 4.0 10.0 0.00 0.02 0.02 42 1014.4
20260902134901 93 189 3.0 7.0 0.00 0.02 0.02 41 1014.5
20260902134402 93 280 4.0 11.0 0.00 0.02 0.02 41 1014.6
20260902133900 93 241 5.0 12.0 0.00 0.02 0.02 41 1014.6
20260902133401 93 197 5.0 10.0 0.00 0.02 0.02 40 1014.6
20260902132900 94 176 4.0 10.0 0.00 0.02 0.02 40 1014.7
20260902132358 94 225 3.0 8.0 0.00 0.02 0.02 39 1014.7
20260902131857 94 231 3.0 9.0 0.00 0.02 0.02 39 1014.7
20260902131358 94 198 3.0 10.0 0.00 0.02 0.02 38 1014.7